Regional Weather Roundup
Issued by NWS Newport/Morehead, NC

Current Version | Previous Version | Text Only | Print | Product List | Glossary On
Versions: 1 2 3 4 5 6 7 8 9 10 11 12 13 14 15 16 17 18 19 20 21 22 23 24 25 26 27 28 29 30 31 32 33 34 35 36 37 38 39 40 41 42 43 44 45 46 47 48 49 50
976
ASUS42 KMHX 280725
RWRMHX
WEATHER ROUNDUP FOR EASTERN NORTH CAROLINA
NATIONAL WEATHER SERVICE NEWPORT/MOREHEAD CITY NC
300 AM EDT WED SEP 28 2016

NOTE: "FAIR" INDICATES FEW OR NO CLOUDS BELOW 12,000 FEET
WITH NO SIGNIFICANT WEATHER AND/OR OBSTRUCTIONS TO VISIBILITY

NCZ015>017-031-032-045>047-102-103-280800-
NORTH COAST

CITY           SKY/WX    TMP DP  RH WIND       PRES   REMARKS
EDENTON        CLOUDY    68  68 100 CALM      29.93S
ELIZABETH CITY PTCLDY    66  66 100 CALM      29.92F FOG
KITTY HAWK     SUNNY     71  71 100 CALM      29.90F
MANTEO         NOT AVBL

$$

NCZ045>047-081-094-103-104-280800-
CENTRAL COAST

CITY           SKY/WX    TMP DP  RH WIND       PRES   REMARKS
FRISCO         CLEAR     74  72  93 N3        29.91R

$$

NCZ095-097-098-100-101-280800-
SOUTHERN COAST

CITY           SKY/WX    TMP DP  RH WIND       PRES   REMARKS
BEAUFORT       CLEAR     69  67  93 CALM      29.92S
CEDAR ISLAND   NOT AVBL
JACKSONVILLE   CLOUDY    69  67  93 CALM      29.92R
PINEY ISLAND   SUNNY    N/A N/A N/A CALM      29.92R
WILMINGTON     PTCLDY    69  68  96 CALM      29.92S


$$

NCZ011>013-027>030-043-044-078>080-089-090>093-098-280800-
COASTAL PLAIN

CITY           SKY/WX    TMP DP  RH WIND       PRES   REMARKS
AHOSKIE        CLOUDY    66  66  98 CALM      29.93R
CLINTON        CLOUDY    69  69 100 CALM      29.92F FOG
ELIZABETHTOWN  CLOUDY    70  70 100 CALM      29.93S
GOLDSBORO      MOCLDY    69  69 100 E1        29.91R
GREENVILLE     CLOUDY    70  70 100 CALM      29.95S
HAVELOCK       CLOUDY    68  67  96 CALM      29.93S
KENANSVILLE    PTCLDY    66  66 100 CALM      29.93S FOG
KINSTON        FOG       67  67  99 CALM      29.94S VSB 1
NEW BERN       CLOUDY    70  68  93 CALM      29.94R
RICHLANDS      CLOUDY    67  67 100 CALM      29.94R
ROCKY MOUNT    LGT RAIN  70  70 100 CALM      29.92R
WASHINGTON     PTCLDY    66  66  99 CALM      29.93S
WHITEVILLE     CLEAR     69  68  95 CALM      29.92S

$$

AMZ130-135-150-152-154-156-158-170-250-252-270-ANZ085-086-088-633-658-670-280800-
MARINE OBSERVATIONS

STATION/POSITION TIME  TEMP    WIND        PRES    WAVE   SWELL
                       AIR SEA DIR/SP/G            HT/PER HT/PER
                 (UTC) (F)     (DEG/KT/KT) (MB)    (FT/S) (FT/S)
CHESAPEAKE LIGHT NOT AVBL
64 E VA BEACH    0650   74 73  360/  4/  6 1012.8    4/12   3/12
DUCK             0700   74 76   20/  2/  3 1012.4
2 E DUCK         0711      76                N/A     4/ 7   2/13
OREGON INLET     0700   74 77   30/  2/  4 1012.6
13E OREGON INLT  0630      76                N/A     4/ 7   5/ 7
HATTERAS CG      0700   75 77  360/  8/  8 1012.4
DIAMOND BUOY     0650   78 83   10/ 10/ 12 1011.9    5/ 7   5/ 7
CAPE LOOKOUT     0700   74     340/  5/  6 1013.0
BEAUFORT LAB     0700   73 76  340/  2/  4 1012.7
30 SE NEW RVR IN 0708   79 83  350/  4/  8 1013.2
30 SE NEW RVR IN 0625      83                N/A     4/ 7   2/12
27 SE WRIGHTSVLE 0608   79 81  300/  2/  6 1013.2
5 SE WRIGHTSVLE  0608   79 80  190/  4/  6 1014.3
225 S CAPE HAT   0650   82 83  240/ 12/ 16 1012.9    5/ 7   3/ 7
41 SE CHARLESTON 0650   80 82  290/  2/  4 1012.9    3/11   3/11

$$




USA.gov is the U.S. government's official web portal to all federal, state and local government web resources and services.